Weather Roundup
Issued by NWS Chicago, IL

Home | Current Version | Previous Version | Graphics & Text | Print | Product List | Glossary On
Versions: 1 2 3 4 5 6 7 8 9 10 11 12 13 14 15 16 17 18 19 20 21 22 23 24 25 26 27 28 29 30 31 32 33 34 35 36 37 38 39 40 41 42 43 44 45 46 47 48 49 50
000
NZUS59 KLOT 250306
HRRLOT

CHICAGO AREA WEATHER ROUNDUP
NATIONAL WEATHER SERVICE CHICAGO/ROMEOVILLE IL
1000 PM CDT THU APR 24 2014

NOTE: "FAIR" INDICATES FEW OR NO CLOUDS BELOW 12,000 FEET WITH NO
SIGNIFICANT WEATHER AND/OR OBSTRUCTIONS TO VISIBILITY.

* THESE STATIONS ARE NOT UNDER NWS QUALITY CONTROL. THEY ALSO MAY NOT
  REPORT WEATHER SUCH AS PRECIPITATION OR FOG.

ILZ005-006-012>014-019>023-250400-
NORTHEAST ILLINOIS

CITY           SKY/WX    TMP DP  RH WIND       PRES   REMARKS
OHARE          CLOUDY    56  34  43 SE14      29.68F
MIDWAY         CLOUDY    58  31  35 SE14      29.69F
AURORA         CLOUDY    55  39  54 SE10      29.68R
LANSING*       CLOUDY    57  28  32 SE13G20   29.70F
JOLIET*        CLOUDY    57  32  38 SE14G21   29.68F
WAUKEGAN       CLOUDY    46  32  58 SE12      29.71S
DUPAGE AIRPORT LGT RAIN  58  34  40 SE7       29.69R
WHEELING       CLOUDY    55  36  48 SE7       29.70F
KANKAKEE*      CLOUDY    59  37  43 E9        29.69S
MORRIS*        DRIZZLE   57  36  44 SE12      29.67R
NORTHERLY IS     N/A     52  39  61 E10         N/A
$$

WIZ051-052-058>065-066-070>072-250400-
SOUTHEAST WISCONSIN

CITY           SKY/WX    TMP DP  RH WIND       PRES   REMARKS
MILWAUKEE      LGT RAIN  45  35  68 SE16      29.73S
KENOSHA*       CLOUDY    49  32  52 SE13      29.71F
RACINE*        CLOUDY    47  34  60 SE14G22   29.74S
BURLINGTON     CLOUDY    50  33  53 MISG      29.69F
WAUKESHA       LGT RAIN  46  32  57 SE12      29.73R
WEST BEND      DRIZZLE   45  32  61 SE8       29.75R
$$

INZ001>003-010>013-019-020-250400-
NORTHWEST INDIANA

CITY           SKY/WX    TMP DP  RH WIND       PRES   REMARKS
GARY*          CLOUDY    60  26  28 SE14      29.70F
MICHIGAN CITY* NOT AVBL
RENSSELAER*    NOT AVBL
VALPARAISO     CLOUDY    56  25  30 SE15      29.73F
$$

LMZ740>746-250400-
SOUTHERN LAKE MICHIGAN

STATION/POSITION TIME  SKY/WX   TEMP WIND        PRES    VSBY
                                AIR  DIR/SP/G
                 (UTC)          (F)  (DEG/KT/KT) (MB)    (MI)
HARRISON CRIB    0300            50  110/ 17/ 19   N/A
BURNHAM HARBOR   0300            50  110/  8/ 10   N/A
CALUMET HARBOR   0300            57  110/ 11/ 13 1006.8F
BURNS HARBOR     NOT AVBL
MICHIGAN CITY    0300            58  110/ 14/ 19   N/A
$$

ABBREVIATIONS USED IN REMARKS
   TC - TEMPERATURE IN CELSIUS
  WCI - WIND CHILL INDEX
   HX - HEAT INDEX
  VSB - VISIBILITY
$$



USA.gov is the U.S. government's official web portal to all federal, state and local government web resources and services.